MON4514 EGCC-GBYD

Flight info

Callsign MON4514
Flight time N/A
Altitude 35000
Route KUXEM P17 BEPHE/N0465F300 DCT OSSEP DCT ELNIF/N0461F320 DCT ZESPE DCT KLAKI DCT SALCO/N0462F310 DCT EBOMO DCT IBISU DCT BALDA DCT ABUPI DCT SGR DCT TAKAV DCT ROLRO DCT SOLNA L660 LAY Y601 KEMUL/N0463F320 Y601 GUPEL UB601 ANITI/N0461F350 UB600 BJ
Aircraft A306/H-SDE3FGHIRWY/LB1

Departure

Time N/A
Airport Manchester Airport (EGCC)

Arrival

Time 2026-04-11 15:56
Airport Banjul International Airport (GBYD)
Time Latitude Longitude Altitude Speed Heading
2026-04-11 15:11 16.97322 -16.46483 32977 ft 417 kts 209°
2026-04-11 15:11 16.94653 -16.47707 32971 ft 416 kts 208°
2026-04-11 15:12 16.89352 -16.50138 32977 ft 417 kts 208°
2026-04-11 15:12 16.84055 -16.52566 32974 ft 416 kts 208°
2026-04-11 15:13 16.78743 -16.54999 32968 ft 417 kts 208°
2026-04-11 15:13 16.73433 -16.57429 32967 ft 417 kts 208°
2026-04-11 15:14 16.68149 -16.59846 32973 ft 417 kts 208°
2026-04-11 15:14 16.62849 -16.62269 32974 ft 417 kts 208°
2026-04-11 15:15 16.57543 -16.64693 32965 ft 417 kts 208°
2026-04-11 15:15 16.53772 -16.66414 32972 ft 417 kts 208°
2026-04-11 15:16 16.48476 -16.68832 32976 ft 417 kts 208°
2026-04-11 15:16 16.43168 -16.71253 32968 ft 417 kts 208°
2026-04-11 15:17 16.37830 -16.73686 32969 ft 418 kts 208°
2026-04-11 15:17 16.32534 -16.76098 32968 ft 418 kts 208°
2026-04-11 15:18 16.27200 -16.78527 32966 ft 418 kts 208°
2026-04-11 15:18 16.21864 -16.80955 32969 ft 418 kts 208°
2026-04-11 15:19 16.16546 -16.83374 32965 ft 418 kts 208°
2026-04-11 15:19 16.11214 -16.85797 32966 ft 419 kts 208°
2026-04-11 15:20 16.05878 -16.88222 32966 ft 419 kts 208°
2026-04-11 15:20 16.00527 -16.90651 32973 ft 419 kts 208°
2026-04-11 15:21 15.95187 -16.93074 32963 ft 419 kts 208°
2026-04-11 15:21 15.89847 -16.95495 32962 ft 419 kts 208°
2026-04-11 15:22 15.84530 -16.97906 32964 ft 419 kts 208°
2026-04-11 15:22 15.79182 -17.00328 32965 ft 419 kts 208°
2026-04-11 15:23 15.73831 -17.02750 32965 ft 419 kts 207°
2026-04-11 15:23 15.68527 -17.05150 32968 ft 419 kts 207°
2026-04-11 15:24 15.63179 -17.07568 32964 ft 419 kts 207°
2026-04-11 15:24 15.57845 -17.09979 32968 ft 418 kts 207°
2026-04-11 15:25 15.52524 -17.12382 32971 ft 418 kts 207°
2026-04-11 15:25 15.47185 -17.14793 32968 ft 418 kts 207°
2026-04-11 15:26 15.41851 -17.17199 32970 ft 418 kts 207°
2026-04-11 15:26 15.36547 -17.19590 32969 ft 418 kts 207°
2026-04-11 15:27 15.31205 -17.21998 32969 ft 418 kts 207°
2026-04-11 15:27 15.25866 -17.24403 32970 ft 418 kts 207°
2026-04-11 15:28 15.20532 -17.26804 32967 ft 418 kts 207°
2026-04-11 15:28 15.15234 -17.29188 32966 ft 418 kts 207°
2026-04-11 15:29 15.09883 -17.31594 32967 ft 418 kts 207°
2026-04-11 15:29 15.04557 -17.33987 32966 ft 418 kts 207°
2026-04-11 15:30 14.99217 -17.36386 32965 ft 418 kts 207°
2026-04-11 15:30 14.93884 -17.38781 32928 ft 424 kts 207°
2026-04-11 15:31 14.91154 -17.40009 32661 ft 428 kts 207°
2026-04-11 15:31 14.88442 -17.41225 32410 ft 427 kts 207°
2026-04-11 15:31 14.85714 -17.42447 32164 ft 425 kts 207°
2026-04-11 15:31 14.83022 -17.43653 31923 ft 424 kts 207°
2026-04-11 15:32 14.80308 -17.44864 31673 ft 423 kts 205°
2026-04-11 15:32 14.77492 -17.45745 31423 ft 427 kts 194°
2026-04-11 15:32 14.74502 -17.45980 31195 ft 433 kts 181°
2026-04-11 15:32 14.71531 -17.45444 30954 ft 442 kts 167°
2026-04-11 15:33 14.68703 -17.44184 30739 ft 446 kts 159°
2026-04-11 15:33 14.65933 -17.42683 30508 ft 447 kts 156°
2026-04-11 15:33 14.63234 -17.41093 30279 ft 447 kts 155°
2026-04-11 15:33 14.60578 -17.39481 30049 ft 445 kts 154°
2026-04-11 15:34 14.57897 -17.37849 29777 ft 443 kts 154°
2026-04-11 15:34 14.55265 -17.36261 29476 ft 438 kts 155°
2026-04-11 15:34 14.52661 -17.34705 29018 ft 432 kts 155°
2026-04-11 15:34 14.50042 -17.33156 28540 ft 427 kts 155°
2026-04-11 15:35 14.47486 -17.31656 28057 ft 423 kts 155°
2026-04-11 15:35 14.44946 -17.30171 27572 ft 420 kts 155°
2026-04-11 15:35 14.42396 -17.28683 27085 ft 417 kts 155°
2026-04-11 15:35 14.39888 -17.27221 26615 ft 415 kts 155°
2026-04-11 15:36 14.37393 -17.25766 26137 ft 413 kts 155°
2026-04-11 15:36 14.35722 -17.24791 25824 ft 412 kts 155°
2026-04-11 15:36 14.33233 -17.23339 25354 ft 411 kts 155°
2026-04-11 15:36 14.29909 -17.21400 24716 ft 411 kts 155°
2026-04-11 15:37 14.27435 -17.19956 24223 ft 411 kts 154°
2026-04-11 15:37 14.24937 -17.18499 23741 ft 412 kts 154°
2026-04-11 15:37 14.22457 -17.17053 23210 ft 413 kts 154°
2026-04-11 15:37 14.20791 -17.16082 22855 ft 412 kts 154°
2026-04-11 15:38 14.18274 -17.14614 22352 ft 410 kts 154°
2026-04-11 15:38 14.15004 -17.12706 21711 ft 407 kts 153°
2026-04-11 15:38 14.13351 -17.11742 21381 ft 406 kts 153°
2026-04-11 15:38 14.11016 -17.10177 21079 ft 403 kts 146°
2026-04-11 15:39 14.08788 -17.08448 20838 ft 402 kts 144°
2026-04-11 15:39 14.06544 -17.06662 20596 ft 402 kts 144°
2026-04-11 15:39 14.04362 -17.04904 20350 ft 400 kts 143°
2026-04-11 15:39 14.02203 -17.03154 19938 ft 396 kts 143°
2026-04-11 15:40 14.00032 -17.01388 19408 ft 397 kts 143°
2026-04-11 15:40 13.97853 -16.99613 18898 ft 397 kts 142°
2026-04-11 15:40 13.95705 -16.97862 18396 ft 396 kts 142°
2026-04-11 15:40 13.93555 -16.96107 17831 ft 396 kts 142°
2026-04-11 15:41 13.91438 -16.94380 17298 ft 394 kts 142°
2026-04-11 15:41 13.89321 -16.92652 16790 ft 392 kts 142°
2026-04-11 15:41 13.87172 -16.90898 16274 ft 390 kts 142°
2026-04-11 15:41 13.85054 -16.89170 15766 ft 387 kts 142°
2026-04-11 15:42 13.82958 -16.87463 15263 ft 384 kts 142°
2026-04-11 15:42 13.80881 -16.85770 14744 ft 382 kts 142°
2026-04-11 15:42 13.78812 -16.84083 14222 ft 368 kts 142°
2026-04-11 15:43 13.75005 -16.80981 13291 ft 335 kts 141°
2026-04-11 15:43 13.73217 -16.79525 12841 ft 321 kts 141°
2026-04-11 15:43 13.71484 -16.78114 12429 ft 320 kts 141°
2026-04-11 15:43 13.69730 -16.76686 12003 ft 320 kts 141°
2026-04-11 15:44 13.68006 -16.75282 11595 ft 317 kts 141°
2026-04-11 15:44 13.66270 -16.73870 11174 ft 315 kts 141°
2026-04-11 15:44 13.64569 -16.72486 10750 ft 313 kts 141°
2026-04-11 15:44 13.62875 -16.71108 10328 ft 309 kts 141°
2026-04-11 15:45 13.61231 -16.69772 10170 ft 288 kts 141°
2026-04-11 15:45 13.59719 -16.68545 10047 ft 268 kts 141°
2026-04-11 15:45 13.58253 -16.67351 9957 ft 269 kts 140°
2026-04-11 15:45 13.56796 -16.66166 9600 ft 269 kts 140°
2026-04-11 15:46 13.55337 -16.64980 9211 ft 268 kts 140°
2026-04-11 15:46 13.53863 -16.63783 8882 ft 267 kts 140°
2026-04-11 15:46 13.52412 -16.62603 8549 ft 266 kts 140°
2026-04-11 15:46 13.50969 -16.61430 8215 ft 265 kts 140°
2026-04-11 15:47 13.49530 -16.60259 7879 ft 264 kts 140°
2026-04-11 15:47 13.48075 -16.59077 7533 ft 263 kts 140°
2026-04-11 15:47 13.46654 -16.57925 7183 ft 262 kts 139°
2026-04-11 15:47 13.45224 -16.56766 6856 ft 265 kts 139°
2026-04-11 15:48 13.43790 -16.55601 6522 ft 265 kts 139°
2026-04-11 15:48 13.42314 -16.54401 6184 ft 267 kts 139°
2026-04-11 15:48 13.40863 -16.53223 5837 ft 269 kts 139°
2026-04-11 15:48 13.39389 -16.52030 5498 ft 270 kts 139°
2026-04-11 15:49 13.37923 -16.50839 5161 ft 270 kts 139°
2026-04-11 15:49 13.36456 -16.49647 4907 ft 268 kts 139°
2026-04-11 15:49 13.35008 -16.48473 4772 ft 259 kts 139°
2026-04-11 15:49 13.33625 -16.47355 4628 ft 251 kts 139°
2026-04-11 15:50 13.32254 -16.46244 4356 ft 249 kts 139°
2026-04-11 15:50 13.30914 -16.45161 4145 ft 244 kts 140°
2026-04-11 15:50 13.29451 -16.44289 3798 ft 248 kts 160°
2026-04-11 15:50 13.27752 -16.44209 3478 ft 250 kts 196°
2026-04-11 15:51 13.26267 -16.45079 3241 ft 248 kts 219°
2026-04-11 15:51 13.24924 -16.46248 2950 ft 252 kts 222°
2026-04-11 15:51 13.23618 -16.47429 2732 ft 252 kts 223°
2026-04-11 15:51 13.22559 -16.48814 2494 ft 249 kts 251°
2026-04-11 15:52 13.22435 -16.50529 2271 ft 239 kts 286°
2026-04-11 15:52 13.23000 -16.52064 2275 ft 220 kts 299°
2026-04-11 15:52 13.23808 -16.53335 2133 ft 210 kts 313°
2026-04-11 15:52 13.24777 -16.54451 1940 ft 205 kts 314°
2026-04-11 15:53 13.25703 -16.55539 1919 ft 205 kts 314°
2026-04-11 15:53 13.26630 -16.56659 1861 ft 207 kts 313°
2026-04-11 15:53 13.27549 -16.57776 1659 ft 204 kts 313°
2026-04-11 15:53 13.28477 -16.58888 1396 ft 201 kts 314°
2026-04-11 15:54 13.29357 -16.59941 1156 ft 191 kts 314°
2026-04-11 15:54 13.30210 -16.60964 901 ft 183 kts 313°
2026-04-11 15:54 13.31020 -16.61928 658 ft 172 kts 312°
2026-04-11 15:54 13.31769 -16.62824 413 ft 159 kts 310°
2026-04-11 15:55 13.32444 -16.63623 221 ft 141 kts 309°
2026-04-11 15:55 13.33074 -16.64373 102 ft 134 kts 309°
2026-04-11 15:55 13.33605 -16.65008 95 ft 96 kts 311°
2026-04-11 15:55 13.33937 -16.65404 97 ft 55 kts 311°
2026-04-11 15:56 13.34070 -16.65566 97 ft 13 kts 310°
2026-04-11 15:56 13.34130 -16.65574 98 ft 8 kts 39°
2026-04-11 15:56 13.34170 -16.65539 96 ft 7 kts 41°
2026-04-11 15:56 13.34202 -16.65511 97 ft 5 kts 41°
2026-04-11 15:57 13.34221 -16.65488 99 ft 3 kts 69°
2026-04-11 15:57 13.34203 -16.65451 99 ft 9 kts 128°
2026-04-11 15:57 13.34168 -16.65401 98 ft 6 kts 102°
2026-04-11 15:57 13.34192 -16.65370 99 ft 7 kts 38°
2026-04-11 15:58 13.34231 -16.65336 98 ft 7 kts 39°
2026-04-11 15:58 13.34261 -16.65305 97 ft 4 kts 69°
2026-04-11 15:58 13.34254 -16.65287 98 ft 2 kts 120°
2026-04-11 15:58 13.34235 -16.65265 97 ft 5 kts 131°
2026-04-11 15:59 13.34218 -16.65245 97 ft 2 kts 131°